Погода в Нововасилевке

Украина / Запорожская область     46°50′59″N   36°46′56″E
темп.,
°C
ветер,
м/с
пор.,
м/с
влажн.,
%
обл.,
%
осадки,
мм/ч
давл.,
гПа
погр.,
м
22 апреля, чт
чт2200:00+9юз34895 0.0 102056
03:00+8зсз22905 0.0 102129
06:00+8з11895 0.0 102111
09:00+11юз23765 0.0 1022350
12:00+12юз447077 0.0 1023535
15:00+12юз567151 0.0 1023496
18:00+11юз44720 0.0 1022203
21:00+10юз34812 0.0 102341
23 апреля, пт
пт2300:00+9юз22825 0.0 102313
03:00+9юз22835 0.0 102212
06:00+9ююз22861 0.0 102216
09:00+12юз34745 0.0 1023316
12:00+12ююз5669100 0.0 1022420
15:00+13ю58699 0.0 1021463
18:00+11ю61075100 0.0 1019273
21:00+11ююз51179100 0.0 1019273
24 апреля, сб
сб2400:00+10юз5986100 0.3 1018256
03:00+9зюз58915 0.4 1016149
06:00+9зюз5109095 0.0 1016268
09:00+9сз678138 0.0 1018495
12:00+13зсз67525 0.0 10181065
15:00+13юз8105659 0.0 10181243
18:00+12зюз7106087 0.0 1019966
21:00+8зсз6115382 0.0 1022599
25 апреля, вс
вс2500:00+6сз595870 0.0 1022247
03:00+5сз345538 0.0 102396
06:00+5сз3458100 0.0 1023106
09:00+8сз2347100 0.0 1023747
12:00+10юз224297 0.0 10221184
15:00+10ю5346100 0.0 1021619
18:00+9ююз3449100 0.0 1021385
21:00+8зюз2253100 0.0 102198
26 апреля, пн
пн2600:00+7сз2258100 0.0 102078
03:00+6ссз3362100 0.0 101974
06:00+6сз2362100 0.0 101972
09:00+10зсз33524 0.0 1019436
12:00+11юз665510 0.0 1018891
15:00+11зюз886838 0.0 10181009
18:00+10юз34665 0.3 1018469
21:00+9зюз45755 0.4 1019106